User: anonymous   Login
Location: Unspecified
(52.0000°N, 19.0000°E)
Time: 23:48:57
(UTC+00:00)
Language:

ISS - Orbit

View from above orbital plane
View from above orbital plane
View from above satellite
View from above satellite

Ground track
Ground track

The orbit data is extracted from the following two-line orbital elements,

1 25544U 98067A   20276.10026479  .00016717  00000-0  10270-3 0  9025
2 25544  51.6428 179.4590 0001323 116.2476 243.8810 15.48821913  8588
Epoch (UTC): 02 October 2020 02:24:22
Eccentricity: 0.0001323
inclination: 51.6428°
perigee height: 419 km
apogee height: 421 km
right ascension of ascending node: 179.4590°
argument of perigee: 116.2476°
revolutions per day: 15.48821913
mean anomaly at epoch: 243.8810°
orbit number at epoch: 858

The dashed part of the orbit path shows where the satellite is in the earth's shadow,  

DLR